Location: Bouchavesnes-Bergen
(49.9859°N, 2.9203°E)
Time: 00:07:15
(UTC+00:00)

Cosmos 1812 - Pass Details

Date: 09 March 2021
Orbit: 516 x 520 km, 82.5° (Epoch: 13 April)

Event Time Altitude Azimuth Distance (km) Brightness Sun altitude
Rises 05:35:19 0° 193° (SSW) 2,630 6.1 -7.2°
Reaches altitude 10° 05:37:26 10° 195° (SSW) 1,747 5.2 -6.8°
Maximum altitude 05:41:16 75° 281° (W) 543 2.6 -6.2°
Drops below altitude 10° 05:45:08 10° 7° (N) 1,760 5.5 -5.6°
Sets 05:47:17 0° 9° (N) 2,653 6.4 -5.2°
